Terug naar catalogus

ARIANE 1 DEB

ActiefSSO
NORAD 17478·DEBRIS·🇫🇷 France

Gelanceerd Feb 22, 1986 vanaf Guiana Space Centre

Loading…

Volgende Passages (komende 24 uur)

TLE

VersSource: Space-Track

Epoch: Sep 14, 2026, 10:24 UTC

1 17478U 86019HR  26257.43344910  .00000280  00000-0  12108-3 0  9996
2 17478  98.2965 245.5217 0039441 138.8110  15.0878 14.30951550 69712

Volg ARIANE 1 DEB in realtime met AllMySat

Download on the App Store